[[{"header":{"parameterUnit":"m.s-1","parameterCategory":1,"la1":30.2991,"la2":30.254,"lo1":-89.0895,"lo2":-89.0444,"dy":0.0017,"dx":0.0017,"nx":28,"ny":28,"refTime":"2023-10-20T21:00:00:Z","depth":0,"parameterNumber":2,"parameterNumberName":"U-component_of_WINDS"},"data":[0,0,0,0,0,0,0,0,0,0,0,0,0,0,0,0,0,0,0,0,0,0,0,0,0,0,0,0,0,0,0,0,0,0,0,0,0,0,0,0,0,0,0,0,0,0,0,0,0,0,0,0,0,0,0,0,0,0,0.359,0.3591,0,0.3682,0.3683,0.3684,0.3666,0.3664,0.3662,0.3661,0.3759,0.3763,0.3767,0,0,0,0,0,0,0,0,0,0,0,0,0,0.3403,0.3407,0.359,0.3591,0.3592,0.3682,0.3683,0.3684,0.3666,0.3664,0.3662,0.366,0.3758,0.3763,0.3768,0,0,0,0,0,0,0,0,0,0,0,0,0,0.3489,0.3408,0.359,0.3594,0.3595,0.3681,0.3683,0.3684,0.3666,0.3664,0.3661,0.3659,0.3756,0.3762,0.3768,0.3858,0,0,0.3788,0.379,0,0,0,0,0,0,0,0,0.3484,0.3496,0.3592,0.3593,0.3595,0.3659,0.3653,0.3743,0.3667,0.3639,0.366,0.3658,0.3728,0.3737,0.376,0.3862,0.3867,0.3788,0.3792,0.3795,0.3796,0,0,0,0,0,0,0,0.3478,0.3491,0.3626,0.3593,0.3595,0.3592,0.3602,0.367,0.3697,0.3642,0.364,0.3651,0.3729,0.3754,0.3762,0.3868,0.3788,0.3794,0.3797,0.38,0.4051,0.4054,0,0,0,0,0,0,0.347,0.3487,0.3623,0.3629,0.3532,0.3598,0.3608,0.3641,0.3696,0.3702,0.3653,0.365,0.3744,0.3754,0.3765,0.3875,0.3795,0.3801,0.3804,0.4048,0.4052,0.4055,0,0,0,0,0,0,0.3466,0.3482,0.362,0.3558,0.3575,0.3604,0.3641,0.3645,0.3669,0.3705,0.371,0.3674,0.3742,0.3756,0.3835,0.3879,0.3803,0.3809,0.4045,0.405,0.4054,0.4096,0,0,0,0,0,0,0.3461,0.3481,0.3514,0.3558,0.3578,0.3687,0.3644,0.3648,0.368,0.3676,0.3725,0.3731,0.3742,0.3826,0.3841,0.3886,0.3814,0.4041,0.4047,0.4052,0.409,0.4101,0.411,0,0,0,0,0,0.3454,0.3523,0.3516,0.3532,0.362,0.3689,0.3701,0.371,0.3683,0.3718,0.3741,0.373,0.3871,0.3834,0.3851,0.3898,0.4039,0.4045,0.4052,0.4086,0.4099,0.4109,0,0,0,0,0,0,0.3484,0.3529,0.3522,0.3606,0.3644,0.3686,0.373,0.3723,0.377,0.3765,0.3776,0.3787,0.3868,0.3891,0.3849,0.3989,0.3951,0.3961,0.3971,0.3984,0.3993,0.3987,0.3819,0,0,0,0,0,0.35,0.3551,0.3588,0.3659,0.3679,0.3701,0.3731,0.3735,0.3776,0.3792,0.3821,0.3861,0.3915,0.395,0.4001,0.4093,0.4105,0.4134,0.4143,0.4151,0.4161,0.4213,0.4227,0.4077,0.4076,0.4076,0,0,0.3535,0.3566,0.3598,0.3666,0.3696,0.3751,0.3715,0.3773,0.3815,0.3801,0.3878,0.39,0.3946,0.4032,0.4072,0.4054,0.4205,0.4159,0.4165,0.4171,0.4221,0.4235,0.4248,0.4081,0.408,0.4079,0,0,0.3627,0.3654,0.3717,0.3748,0.3793,0.3807,0.3822,0.3865,0.388,0.3956,0.3948,0.3997,0.4089,0.4123,0.4152,0.4257,0.4249,0.4273,0.4324,0.4375,0.4387,0.4397,0.4437,0.4451,0.4282,0.4282,0.4282,0,0.3665,0.3745,0.3751,0.3811,0.3843,0.3831,0.3897,0.3926,0.3986,0.4009,0.3988,0.4103,0.4134,0.4228,0.4254,0.4277,0.4297,0.4268,0.4384,0.4395,0.4405,0.4443,0.4458,0.4285,0.4284,0.4284,0.4284,0,0.3791,0.3847,0.3893,0.395,0.3986,0.4049,0.4066,0.4102,0.4103,0.412,0.4199,0.4235,0.4294,0.4316,0.4318,0.4412,0.44,0.4381,0.4344,0.4422,0.4458,0.4472,0.4289,0.4288,0.4287,0.4286,0,0,0.3905,0.3965,0.3982,0.4008,0.4057,0.4102,0.4164,0.422,0.4253,0.4294,0.4349,0.4426,0.441,0.4443,0.4448,0.4492,0.4576,0.4468,0.447,0.4489,0.4684,0.47,0.4716,0.457,0.4572,0.4575,0.4681,0,0.4003,0.4112,0.412,0.4219,0.4272,0.4262,0.4317,0.4354,0.4372,0.4421,0.4441,0.4497,0.4469,0.4489,0.4532,0.4556,0.4616,0.4548,0.4623,0.4625,0.4614,0.4735,0.4751,0.485,0.4695,0.4698,0.4699,0,0.4132,0.4177,0.4281,0.4324,0.4346,0.4395,0.4449,0.4494,0.4537,0.4547,0.4584,0.4583,0.4649,0.4608,0.47,0.4655,0.4685,0.4702,0.4706,0.4715,0.4669,0.475,0.4882,0.4897,0.4721,0.4719,0.4718,0,0.4208,0.4294,0.4368,0.4391,0.4442,0.4477,0.45,0.454,0.4574,0.462,0.4643,0.4697,0.4727,0.477,0.4785,0.4752,0.4878,0.4837,0.489,0.489,0.4918,0.4917,0.506,0.4934,0.4934,0.4934,0.4933,0,0.4317,0.4383,0.4403,0.4449,0.4522,0.4531,0.4603,0.4625,0.466,0.4711,0.4706,0.4754,0.4769,0.4821,0.4833,0.4909,0.4922,0.4934,0.4937,0.4936,0.4935,0.4958,0.4952,0.4938,0.4937,0.4936,0.4935,0,0.4415,0.4432,0.4512,0.4554,0.4566,0.4618,0.4654,0.4699,0.4716,0.4781,0.4797,0.4823,0.4884,0.4902,0.4975,0.4983,0.5073,0.5068,0.5059,0.506,0.5113,0.5108,0.5277,0.5301,0.5158,0.5159,0.516,0,0.4486,0.4535,0.4582,0.4615,0.464,0.4693,0.4728,0.4738,0.4775,0.4827,0.4866,0.4926,0.4974,0.5072,0.5099,0.5155,0.5153,0.5208,0.5162,0.516,0.5157,0.5155,0.5161,0.5218,0.5219,0.5221,0.5222,0,0.4609,0.4615,0.4664,0.4716,0.4757,0.48,0.484,0.4868,0.4885,0.4926,0.4987,0.5025,0.5099,0.5159,0.5216,0.5242,0.5236,0.5236,0.5252,0.5252,0.5245,0.5252,0.5085,0.5232,0.5231,0.5231,0.523,0.523,0.4697,0.4741,0.4781,0.4837,0.4868,0.4906,0.4951,0.4973,0.5024,0.5085,0.5088,0.5155,0.5197,0.5273,0.5302,0.5355,0.5339,0.5362,0.5368,0.5374,0.5379,0.5235,0.5365,0.5365,0.5365,0.5365,0.5364,0,0.4822,0.4847,0.4898,0.4955,0.4999,0.4987,0.5031,0.507,0.5128,0.5168,0.5215,0.5287,0.5345,0.5376,0.5434,0.5472,0.5471,0.5487,0.5486,0.5492,0.5389,0.537,0.5487,0.5487,0.5487,0.5487,0.5487,0.5487,0.4893,0.4968,0.4978,0.507,0.5095,0.5159,0.5186,0.5222,0.5254,0.5333,0.5381,0.54,0.5437,0.5498,0.5552,0.556,0.5583,0.5601,0.5608,0.5511,0.5499,0.5487,0.547,0.5606,0.5606,0.5707,0.5708,0.5709]},{"header":{"parameterUnit":"m.s-1","parameterCategory":1,"la1":30.2991,"la2":30.254,"lo1":-89.0895,"lo2":-89.0444,"dy":0.0017,"dx":0.0017,"nx":28,"ny":28,"refTime":"2023-10-20T21:00:00:Z","depth":0,"parameterNumber":3,"parameterNumberName":"V-component_of_WINDS"},"data":[0,0,0,0,0,0,0,0,0,0,0,0,0,0,0,0,0,0,0,0,0,0,0,0,0,0,0,0,0,0,0,0,0,0,0,0,0,0,0,0,0,0,0,0,0,0,0,0,0,0,0,0,0,0,0,0,0,0,1.6026,1.6028,0,1.6165,1.6167,1.6168,1.6164,1.6162,1.616,1.6158,1.6298,1.6303,1.6309,0,0,0,0,0,0,0,0,0,0,0,0,0,1.5757,1.5762,1.6026,1.6028,1.603,1.6165,1.6167,1.6169,1.6164,1.6162,1.616,1.6157,1.6296,1.6303,1.6309,0,0,0,0,0,0,0,0,0,0,0,0,0,1.5883,1.5764,1.6026,1.6044,1.6047,1.6165,1.6167,1.6169,1.6165,1.6162,1.6159,1.6156,1.6294,1.6302,1.631,1.6419,0,0,1.6336,1.6339,0,0,0,0,0,0,0,0,1.5876,1.5893,1.6039,1.6043,1.6046,1.6144,1.6123,1.6253,1.6165,1.612,1.6158,1.6155,1.6249,1.6261,1.6293,1.6425,1.6431,1.6336,1.6341,1.6345,1.6347,0,0,0,0,0,0,0,1.5867,1.5887,1.6081,1.6041,1.6046,1.6045,1.606,1.6148,1.6199,1.6124,1.6124,1.614,1.625,1.6285,1.6296,1.6433,1.6336,1.6343,1.6348,1.6352,1.6665,1.6668,0,0,0,0,0,0,1.5854,1.5879,1.6077,1.6085,1.5952,1.6052,1.6068,1.6116,1.6198,1.6208,1.6143,1.6139,1.6273,1.6287,1.6301,1.6437,1.6345,1.6353,1.6357,1.6662,1.6666,1.6669,0,0,0,0,0,0,1.5849,1.5872,1.6071,1.5982,1.6008,1.606,1.6113,1.612,1.6155,1.6212,1.6221,1.6169,1.6271,1.629,1.6391,1.6441,1.6356,1.6364,1.6658,1.6663,1.6667,1.6706,0,0,0,0,0,0,1.5841,1.587,1.5912,1.5983,1.6012,1.6158,1.6116,1.6125,1.6169,1.6167,1.6239,1.6248,1.627,1.6378,1.6399,1.6451,1.637,1.6653,1.666,1.6666,1.67,1.6712,1.6721,0,0,0,0,0,1.5831,1.5916,1.5914,1.5938,1.6066,1.6161,1.6178,1.6202,1.6173,1.6216,1.6253,1.6246,1.6432,1.6389,1.6412,1.6467,1.665,1.6658,1.6665,1.6696,1.6709,1.6721,0,0,0,0,0,0,1.5847,1.5925,1.5924,1.6034,1.6091,1.616,1.6215,1.6215,1.628,1.6275,1.6301,1.6317,1.6419,1.6453,1.6403,1.6578,1.6538,1.655,1.6553,1.6566,1.6576,1.6567,1.6377,0,0,0,0,0,1.5864,1.5935,1.5999,1.609,1.6119,1.6162,1.6204,1.6218,1.6278,1.6302,1.6346,1.6404,1.6476,1.6522,1.6591,1.6705,1.6722,1.6754,1.6765,1.6773,1.6784,1.6849,1.6865,1.6694,1.6694,1.6694,0,0,1.5898,1.5949,1.5992,1.6095,1.614,1.6214,1.6182,1.6261,1.6316,1.6313,1.6413,1.6447,1.6514,1.6622,1.6672,1.6653,1.6835,1.6783,1.6789,1.6796,1.6859,1.6875,1.6889,1.6699,1.6698,1.6697,0,0,1.5999,1.6044,1.6126,1.6174,1.6244,1.6273,1.6293,1.6363,1.6386,1.6486,1.6487,1.6552,1.6674,1.6723,1.6764,1.6886,1.6883,1.6907,1.6962,1.7026,1.7039,1.7052,1.7098,1.7114,1.6918,1.6918,1.6918,0,1.6033,1.6144,1.6168,1.6249,1.6295,1.6297,1.6382,1.6426,1.6515,1.6547,1.6524,1.668,1.6725,1.6846,1.6877,1.6908,1.6933,1.69,1.7035,1.7048,1.706,1.7104,1.7121,1.6921,1.692,1.692,1.692,0,1.6184,1.6261,1.6319,1.6408,1.646,1.6541,1.6579,1.6628,1.6638,1.6669,1.6772,1.6826,1.6908,1.6937,1.6946,1.7061,1.7047,1.703,1.699,1.7078,1.7121,1.7138,1.6924,1.6923,1.6923,1.6922,0,0,1.6298,1.64,1.6422,1.6463,1.6542,1.6603,1.6685,1.6766,1.681,1.6871,1.6942,1.7047,1.7033,1.7079,1.7093,1.7149,1.7246,1.7125,1.7127,1.7148,1.7379,1.7393,1.7412,1.7244,1.7247,1.7249,1.7374,0,1.6409,1.6557,1.6583,1.6712,1.6786,1.679,1.6862,1.6919,1.695,1.7017,1.7051,1.7127,1.71,1.7129,1.7184,1.7222,1.7293,1.7213,1.7311,1.7314,1.7297,1.7433,1.7448,1.7563,1.739,1.7393,1.7395,0,1.6559,1.6627,1.6764,1.6836,1.6868,1.6933,1.7011,1.7074,1.7139,1.7158,1.7211,1.722,1.7307,1.7262,1.7383,1.7329,1.737,1.7395,1.74,1.7412,1.7361,1.7451,1.76,1.7618,1.7421,1.7419,1.7417,0,1.6632,1.6757,1.6857,1.6892,1.6977,1.7023,1.7061,1.7123,1.7171,1.7239,1.7271,1.7347,1.7389,1.7448,1.7478,1.7442,1.7598,1.7555,1.7617,1.7617,1.7651,1.7649,1.7811,1.7674,1.7673,1.7673,1.7673,0,1.6755,1.6839,1.6891,1.6953,1.7048,1.7077,1.717,1.7207,1.7263,1.7332,1.7339,1.7403,1.7438,1.7507,1.7531,1.7629,1.7647,1.7666,1.7671,1.7667,1.7665,1.7695,1.7689,1.7678,1.7677,1.7676,1.7675,0,1.6853,1.6891,1.7,1.7073,1.7094,1.7161,1.7224,1.7284,1.7316,1.7403,1.7426,1.7476,1.7558,1.7594,1.7694,1.771,1.7824,1.7822,1.7803,1.7805,1.7866,1.7861,1.8056,1.8084,1.7926,1.7927,1.7928,0,1.693,1.6995,1.7077,1.7124,1.7164,1.724,1.729,1.732,1.7372,1.7453,1.7504,1.7587,1.7656,1.7788,1.7833,1.7911,1.7913,1.7975,1.7924,1.7918,1.7917,1.7913,1.7921,1.7985,1.7987,1.7988,1.7989,0,1.7063,1.708,1.7152,1.7232,1.7291,1.7355,1.7417,1.7456,1.7497,1.7554,1.764,1.7694,1.7799,1.7882,1.7963,1.8002,1.8003,1.8005,1.8024,1.8021,1.8008,1.8019,1.7831,1.8,1.7999,1.7999,1.7998,1.7997,1.7155,1.7215,1.7282,1.7363,1.7414,1.7473,1.7534,1.7575,1.7647,1.7736,1.7749,1.7842,1.7907,1.8017,1.8059,1.8132,1.8116,1.8143,1.815,1.8157,1.8162,1.7995,1.8146,1.8146,1.8146,1.8145,1.8145,0,1.7291,1.7335,1.741,1.7498,1.7562,1.7559,1.7628,1.7682,1.7764,1.7825,1.7894,1.7994,1.8075,1.8127,1.821,1.8258,1.8261,1.8279,1.8277,1.8286,1.817,1.8147,1.8275,1.8275,1.8275,1.8275,1.8275,1.8275,1.737,1.7472,1.7497,1.7625,1.7668,1.776,1.78,1.7855,1.7905,1.8017,1.8085,1.8119,1.8178,1.8265,1.834,1.8353,1.8384,1.8404,1.8416,1.8307,1.8294,1.8281,1.8259,1.8409,1.841,1.8527,1.8528,1.8528]}]]